This demonstration page uses our WeatherBlox Daily Observations layout. Learn more.

Left ArrowRight Arrow

39.01783, -85.05884

Hourly Observations for May 30, 2018

Temp ( °F °C ) Dew Point ( °F °C ) Humidity (%) Winds ( mph kmh ) Pressure ( in mb ) Visibility ( mi km ) Precip ( " mm )
12:52 am 00:52 Partly Cloudy 77 25 68 20 74 74 SE 12 19 29.78 1009 10 16 0.00 0.00
1:52 am 01:52 Mostly Cloudy 76 24.4 68 20 77 77 ESE 12 19 29.77 1008 10 16 0.00 0.00
2:52 am 02:52 Mostly Cloudy 76 24.4 67 19.4 74 74 ESE 13 20 29.77 1008 10 16 0.00 0.00
3:52 am 03:52 Mostly Cloudy 75 23.9 67 19.4 76 76 ESE 13 20 29.76 1008 10 16 0.00 0.00
4:52 am 04:52 Mostly Cloudy 74 23.3 67 19.4 79 79 ESE 12 19 29.76 1008 10 16 0.00 0.00
5:52 am 05:52 Mostly Cloudy 74 23.3 67 19.4 79 79 ESE 14 22 29.75 1008 10 16 0.00 0.00
6:52 am 06:52 Mostly Cloudy 74 23.3 67 19.4 79 79 SE 14 22 29.75 1008 10 16 0.00 0.00
7:52 am 07:52 Sunny 74 23.3 67 19.4 79 79 SE 14 22 29.77 1008 10 16 0.00 0.00
8:52 am 08:52 Partly Cloudy 77 25 67 19.4 71 71 SSE 17 28 29.77 1008 10 16 0.00 0.00
9:52 am 09:52 Mostly Cloudy 78 25.6 68 20 71 71 SSE 16 26 29.76 1008 10 16 0.00 0.00
10:52 am 10:52 Mostly Cloudy 79 26.1 69 20.6 72 72 SSE 18 30 29.75 1007 10 16 0.00 0.00
11:52 am 11:52 Cloudy 80 26.7 68 20 67 67 SSE 21 33 29.73 1007 10 16 0.00 0.00
12:52 pm 12:52 Cloudy 81 27.2 68 20 65 65 S 23 37 29.72 1006 10 16 0.00 0.00
1:52 pm 13:52 Cloudy with Light Rain 77 25 70 21.1 79 79 SSW 17 28 29.71 1006 6 10 0.02 0.51
2:05 pm 14:05 Cloudy with Heavy Rain 75 23.9 71 21.7 88 88 SSW 16 26 29.71 1006 2 3 0.01 0.25
2:15 pm 14:15 Cloudy with Rain 74 23.3 71 21.7 91 91 S 15 24 29.74 1007 6 10 0.11 2.79
2:52 pm 14:52 Cloudy 77 25 72 22.2 85 85 S 18 30 29.72 1006 10 16 0.12 3.05
3:52 pm 15:52 Mostly Cloudy 78 25.6 70 21.1 76 76 S 21 33 29.69 1005 10 16 0.00 0.00
4:03 pm 16:03 Cloudy 78 25.6 71 21.7 79 79 S 17 28 29.65 1004 10 16 0.00 0.00
4:52 pm 16:52 Mostly Cloudy 80 26.7 71 21.7 74 74 S 20 31 29.68 1005 10 16 0.00 0.00
5:52 pm 17:52 Cloudy 81 27.2 70 21.1 69 69 S 21 33 29.66 1004 10 16 0.00 0.00
6:52 pm 18:52 Mostly Cloudy 79 26.1 71 21.7 77 77 S 14 22 29.67 1005 10 16 0.00 0.00
7:13 pm 19:13 Mostly Cloudy with Light Rain 77 25 72 22.2 85 85 S 9 15 29.62 1003 10 16 0.00 0.03
7:37 pm 19:37 Mostly Cloudy 76 24.4 71 21.7 85 85 S 13 20 29.65 1004 10 16 0.00 0.03
7:52 pm 19:52 Mostly Cloudy 76 24.4 71 21.7 85 85 S 12 19 29.67 1005 10 16 0.00 0.03
8:13 pm 20:13 Mostly Cloudy with Nearby Thunderstorms 76 24.4 71 21.7 85 85 S 8 13 29.65 1004 10 16 0.00 0.00
8:23 pm 20:23 Cloudy with Thunderstorms 77 25 71 21.7 82 82 S 7 11 29.65 1004 10 16 0.00 0.00
8:36 pm 20:36 Mostly Cloudy with Thunderstorms 76 24.4 70 21.1 82 82 WNW 12 19 29.68 1005 3 5 0.00 0.03
8:38 pm 20:38 Cloudy with Thunderstorms 75 23.9 70 21.1 84 84 undefined N/A 29.68 1005 2 3 0.00 0.03
8:52 pm 20:52 Cloudy 76 24.4 71 21.7 85 85 S 12 19 29.70 1006 10 16 0.07 1.78
9:12 pm 21:12 Cloudy 75 23.9 71 21.7 88 88 S 9 15 29.71 1006 10 16 0.00 0.00
9:48 pm 21:48 Cloudy with Thunderstorms 75 24 72 22 89 89 WSW 10 17 29.74 1007 4 6 0.01 0.25
9:50 pm 21:50 Cloudy with Strong Thunderstorms 75 24 72 22 89 89 SW 10 17 29.74 1007 4 6 0.07 1.78
9:52 pm 21:52 Cloudy with Strong Thunderstorms 75 23.9 71 21.7 88 88 S 9 15 29.75 1007 1 2 0.17 4.32
9:59 pm 21:59 Cloudy with Strong Thunderstorms 74 23.3 71 21.7 91 91 SSE 20 31 29.74 1007 1 2 0.24 6.10
10:17 pm 22:17 Mostly Cloudy 74 23.3 71 21.7 91 91 S 10 17 29.74 1007 10 16 0.38 9.65
10:27 pm 22:27 Cloudy 74 23.3 72 22.2 94 94 S 9 15 29.74 1007 10 16 0.38 9.65
10:52 pm 22:52 Cloudy 74 23.3 73 22.8 97 97 S 12 19 29.75 1007 10 16 0.38 9.65
11:52 pm 23:52 Mostly Cloudy 72 22.2 70 21.1 94 94 S 8 13 29.75 1008 10 16 0.00 0.00

Powered by AerisWeather